Location: Newark
(7.2500°N, 36.5833°E)
Time: 12:49:32
(UTC+00:00)

ISS - Visible Passes

Search period start: 15 November 2019 00:00
Search period end: 25 November 2019 00:00
Orbit: 412 x 421 km, 51.6° (Epoch: 15 November)

Date Brightness Start Highest point End Pass type
(mag) Time Alt. Az. Time Alt. Az. Time Alt. Az.
15 Nov -2.8 16:35:49 10° SW 16:38:59 42° NW 16:39:20 40° NW visible
16 Nov -1.1 02:32:50 10° N 02:35:06 17° NE 02:37:22 10° E visible
16 Nov -3.8 15:47:22 10° SSW 15:50:40 73° SE 15:53:40 12° NE visible
18 Nov -3.8 02:32:38 18° NW 02:35:02 87° ENE 02:38:22 10° SE visible
18 Nov -1.4 15:48:02 10° WSW 15:50:34 20° NW 15:53:07 10° N visible
19 Nov -2.2 01:46:57 33° ENE 01:46:57 33° ENE 01:49:45 10° ESE visible
20 Nov -2.0 02:34:11 16° WSW 02:34:50 17° SW 02:37:08 10° SSW visible
21 Nov -1.6 01:48:24 20° S 01:48:24 20° S 01:49:39 10° SSE visible
